Regional Weather Roundup
Issued by NWS

Home | Current Version | Previous Version | Text Only | Print | Product List | Glossary Off
Versions: 1 2 3 4 5 6 7 8 9 10 11 12 13 14 15 16 17 18 19 20 21 22 23 24 25 26 27 28 29 30 31 32 33 34 35 36 37 38 39 40 41 42 43 44 45 46 47 48 49 50

000
ASUS43 KBIS 301620
RWRND

NORTH DAKOTA REGIONAL WEATHER ROUNDUP
NATIONAL WEATHER SERVICE BISMARCK ND
1000 AM CST FRI JAN 30 2015

NOTE: "FAIR" INDICATES FEW OR NO CLOUDS BELOW 12,000 FEET WITH NO
SIGNIFICANT WEATHER AND/OR OBSTRUCTIONS TO VISIBILITY.


NDZ001>003-009>011-017-301700-
NORTHWEST NORTH DAKOTA

CITY           SKY/WX    TMP DP  RH WIND       PRES   REMARKS
WILLISTON      SUNNY     25  20  81 SW3       30.18R
MINOT          SUNNY     27  18  69 SW10      30.12S WCI  17
MINOT AFB      SUNNY     26  26  98 W8        30.12F WCI  18
$$

NDZ018>021-031>035-040>046-301700-
SOUTHWEST NORTH DAKOTA

CITY           SKY/WX    TMP DP  RH WIND       PRES   REMARKS
BISMARCK       SUNNY     25  20  81 SW8       30.20S WCI  16
DICKINSON      SUNNY     34  24  67 W13       30.14R
GARRISON         N/A     26  21  81 SW5       30.14S
HETTINGER ARPT SUNNY     31  22  69 W6        30.18R
$$

NDZ004>008-012>016-024-026-027-054-301700-
NORTHEAST NORTH DAKOTA

CITY           SKY/WX    TMP DP  RH WIND       PRES   REMARKS
GRAND FORKS    CLOUDY    16  10  79 S18G26    30.27F WCI  -1
GRND FRKS AFB  CLOUDY    16  10  79 S17       30.26F WCI   0
DEVILS LAKE    SUNNY     21  18  86 S15       30.17F WCI   8
$$

NDZ022-023-025-028>030-036>039-047>053-301700-
SOUTHEAST NORTH DAKOTA

CITY           SKY/WX    TMP DP  RH WIND       PRES   REMARKS
FARGO          SUNNY     17  10  74 S14G23    30.35F WCI   3
JAMESTOWN      MOSUNNY   22  17  81 S18G28    30.20F WCI   7
$$




USA.gov is the U.S. government's official web portal to all federal, state and local government web resources and services.